Volver al catálogo

STARLINK-34682

ActivoComunicacionesSSO
NORAD 64854·PAYLOAD·🇺🇸 United States

Lanzado Jul 19, 2025 desde Vandenberg Space Force Base

Loading…

Próximos Pases (próximas 24 horas)

TLE

ActualizadoSource: CelesTrak SupGP

Época: Sep 15, 2026, 03:42 UTC

1 64854C 25152N   26258.15465278 -.00036094  00000+0 -11202-2 0  2582
2 64854  97.2851 108.8346 0002094  91.8499  46.8807 15.33463448    11

Sigue STARLINK-34682 en tiempo real con AllMySat

Download on the App Store